Showing default

KUIPER-00438, 68940

Orbit data source: Space-Track

KUIPER-00438, 68940 is a payload satellite owned by Kuiper Systems (US) in LEO that was launched on Thu, 30 Apr 2026 UTC via an ARIANE 64 launch vehicle from the French Guiana (FRGUI). Payload-class satellites include a variety of spacecraft equipped with specific instruments for various scientific and technological missions. These include communications satellites like Starlink; space stations such as the ISS; scientific satellites like the Hubble; Earth observation satellites from companies like Planet Labs, Umbra, and HawkEye 360; GPS; miniature CubeSats for education and research; and military/defense satellites.

Loading next visibility...
Identifier
68940, 2026-098X
Orbit
LEO
Country
Flag of USUS
Related business
Manufacturer
Kuiper Systems
Mission
Operational spacecraft
Bus & Motor
KUIPER, Unknown motor
Mass
~490 kg wet, ~490 kg dry
Launch date (UTC)
2026-04-30 (1 month ago)
Launch vehicle
ARIANE 64
Launch site
French Guiana (FRGUI)
Object type
Payload
Rocket body
Debris
Shape & HBR
Unknown
Radar Cross Section
Large (>1 m²)

Expand to show TLE details & history
Last TLE update: 3 days ago

TLE from 3 days ago
0 KUIPER-00438
1 68940U 26098X   26155.08323295  .00027378  00000-0  82777-3 0  9994
2 68940  51.8739 130.9315 0006148 108.1848 251.9807 15.34000301  5333
Epoch: 2026-06-04T01:59Z
TLE epoch observation values (Epoch: 2026-06-04T01:59:51.326Z)
Latitude
-0.00004°
Longitude
-151.56498°
Altitude
465.957 km
Speed
7.634 km/s
True Right ascension
08h 43m 43s
True Declination
0° 00' 00"
Sunlit
Object was in daylight at epoch
Visualization orbit readout
Latitude
Unknown
Longitude
Unknown
Altitude
Unknown
Speed
Unknown
Apparent Right ascension
Unknown
Apparent Declination
Unknown
Sunlit
N/A
Visualization observer readout
Local Sidereal Time
02:19:32
Azimuth
Unknown
Elevation
Unknown
Doppler factor
Unknown
Orbital elements
Apogee altitude
468.564 km
Perigee altitude
460.151 km
Semi-major axis
6,842.495 km
Eccentricity
0.00061
Inclination
51.8739°
RAAN
130.9315°
Arg. of periapsis
108.1848°
True anomaly
251.91372°
Mean anomaly
251.9807°
Eccentric anomaly
251.94721°
Mean motion
3.83461 °/min
Orbital period
93.88 mins
BSTAR
0.00082777
Loading maneuver chart data...
Computing Atmospheric mass density...
Loading historical data...
Loading historical data...
Loading historical data...
Loading historical data...
Loading historical data...
Loading historical data...
Loading historical data...

Documentation

Showing up to 5 results
|